TimeMST,TemperatureF,Dew PointF,Humidity,Sea Level PressureIn,VisibilityMPH,Wind Direction,Wind SpeedMPH,Gust SpeedMPH,PrecipitationIn,Events,Conditions,WindDirDegrees,DateUTC
12:53 AM,32.0,19.9,61,30.24,10.0,ENE,6.9,-,N/A,,Clear,70,2012-11-21 07:53:00
1:53 AM,34.0,21.0,59,30.22,10.0,East,10.4,-,N/A,,Clear,90,2012-11-21 08:53:00
2:53 AM,32.0,21.0,64,30.22,10.0,East,9.2,-,N/A,,Clear,90,2012-11-21 09:53:00
3:53 AM,30.0,19.9,66,30.21,10.0,East,6.9,-,N/A,,Clear,90,2012-11-21 10:53:00
4:53 AM,30.0,19.9,66,30.22,10.0,East,9.2,-,N/A,,Clear,100,2012-11-21 11:53:00
5:53 AM,30.0,19.9,66,30.26,10.0,ESE,9.2,-,N/A,,Clear,110,2012-11-21 12:53:00
6:53 AM,28.9,19.0,67,30.29,10.0,ESE,9.2,-,N/A,,Clear,110,2012-11-21 13:53:00
7:53 AM,32.0,19.9,61,30.31,10.0,East,8.1,-,N/A,,Clear,100,2012-11-21 14:53:00
8:53 AM,36.0,21.0,55,30.31,10.0,ESE,8.1,-,N/A,,Clear,120,2012-11-21 15:53:00
9:53 AM,42.1,23.0,47,30.28,10.0,ESE,8.1,-,N/A,,Clear,110,2012-11-21 16:53:00
10:53 AM,51.1,21.0,31,30.23,10.0,SE,10.4,-,N/A,,Clear,130,2012-11-21 17:53:00
11:53 AM,55.0,16.0,22,30.17,10.0,SE,4.6,-,N/A,,Clear,140,2012-11-21 18:53:00
12:53 PM,59.0,16.0,19,30.14,10.0,ESE,4.6,-,N/A,,Clear,120,2012-11-21 19:53:00
2:53 PM,61.0,15.1,17,30.09,10.0,Calm,Calm,-,N/A,,Clear,0,2012-11-21 21:53:00
3:53 PM,60.1,15.1,17,30.08,10.0,Calm,Calm,-,N/A,,Clear,0,2012-11-21 22:53:00
4:53 PM,57.9,15.1,19,30.09,10.0,Calm,Calm,-,N/A,,Clear,0,2012-11-21 23:53:00
5:53 PM,48.9,16.0,27,30.12,10.0,North,3.5,-,N/A,,Clear,10,2012-11-22 00:53:00
6:53 PM,42.1,17.1,37,30.16,10.0,East,3.5,-,N/A,,Clear,100,2012-11-22 01:53:00
7:53 PM,42.1,16.0,35,30.17,10.0,North,6.9,-,N/A,,Clear,10,2012-11-22 02:53:00
8:53 PM,37.0,16.0,42,30.17,10.0,NNE,3.5,-,N/A,,Clear,30,2012-11-22 03:53:00
9:53 PM,35.1,16.0,46,30.17,10.0,ENE,5.8,-,N/A,,Clear,70,2012-11-22 04:53:00
10:53 PM,33.1,16.0,50,30.14,10.0,ENE,6.9,-,N/A,,Clear,60,2012-11-22 05:53:00
11:53 PM,30.9,16.0,54,30.14,10.0,ENE,4.6,-,N/A,,Clear,60,2012-11-22 06:53:00